owner,sensor,date,latitude,longitude,vertical_datum,wind_speed,wind_to_direction,wind_speed_of_gust,qcFlag 
TCOON,ioos:station:TCOON:005:1,2017-01-01T00:00:00Z,27.6346,-97.2370,0.0,0.8,145.0,1.6,'11111222,11111222,11111222' 
TCOON,ioos:station:TCOON:005:1,2017-01-01T00:06:00Z,27.6346,-97.2370,0.0,1.0,156.0,1.2,'11111222,11111222,11111222' 
TCOON,ioos:station:TCOON:005:1,2017-01-01T00:12:00Z,27.6346,-97.2370,0.0,0.9,144.0,1.4,'11111222,11111222,11111222' 
TCOON,ioos:station:TCOON:005:1,2017-01-01T00:18:00Z,27.6346,-97.2370,0.0,1.1,144.0,1.5,'11111222,11111222,11111222' 
TCOON,ioos:station:TCOON:005:1,2017-01-01T00:24:00Z,27.6346,-97.2370,0.0,1.1,144.0,1.5,'1111122,1111122,1111122' 
TCOON,ioos:station:TCOON:005:1,2017-01-01T00:30:00Z,27.6346,-97.2370,0.0,1.1,127.0,1.2,'11111222,11111222,11111222' 
TCOON,ioos:station:TCOON:005:1,2017-01-01T00:36:00Z,27.6346,-97.2370,0.0,1.2,134.0,1.4,'11111222,11111222,11111222' 
TCOON,ioos:station:TCOON:005:1,2017-01-01T00:42:00Z,27.6346,-97.2370,0.0,1.0,128.0,1.3,'11111222,11111222,11111222' 
TCOON,ioos:station:TCOON:005:1,2017-01-01T00:48:00Z,27.6346,-97.2370,0.0,1.4,135.0,1.7,'11111222,11111222,11111222' 
TCOON,ioos:station:TCOON:005:1,2017-01-01T00:54:00Z,27.6346,-97.2370,0.0,1.3,130.0,1.6,'11111222,11111222,11111222' 
TCOON,ioos:station:TCOON:005:1,2017-01-01T01:00:00Z,27.6346,-97.2370,0.0,1.1,138.0,1.7,'11111222,11111222,11111222' 
TCOON,ioos:station:TCOON:005:1,2017-01-01T01:06:00Z,27.6346,-97.2370,0.0,0.5,152.0,1.0,'11111222,11111222,11111222' 
TCOON,ioos:station:TCOON:005:1,2017-01-01T01:12:00Z,27.6346,-97.2370,0.0,0.1,179.0,0.9,'11111222,11111222,11111222' 
TCOON,ioos:station:TCOON:005:1,2017-01-01T01:18:00Z,27.6346,-97.2370,0.0,0.1,179.0,0.9,'1111122,1111122,1111122' 
TCOON,ioos:station:TCOON:005:1,2017-01-01T01:24:00Z,27.6346,-97.2370,0.0,0.9,137.0,1.4,'11111222,11111222,11111222' 
TCOON,ioos:station:TCOON:005:1,2017-01-01T01:30:00Z,27.6346,-97.2370,0.0,1.0,126.0,1.3,'11111222,11111222,11111222' 
TCOON,ioos:station:TCOON:005:1,2017-01-01T01:36:00Z,27.6346,-97.2370,0.0,1.1,131.0,1.5,'11111222,11111222,11111222' 
TCOON,ioos:station:TCOON:005:1,2017-01-01T01:42:00Z,27.6346,-97.2370,0.0,1.3,131.0,1.5,'11111222,11111222,11111222' 
TCOON,ioos:station:TCOON:005:1,2017-01-01T01:48:00Z,27.6346,-97.2370,0.0,1.2,137.0,1.7,'11111222,11111222,11111222' 
TCOON,ioos:station:TCOON:005:1,2017-01-01T01:54:00Z,27.6346,-97.2370,0.0,1.6,141.0,2.0,'11111222,11111222,11111222' 
TCOON,ioos:station:TCOON:005:1,2017-01-01T02:00:00Z,27.6346,-97.2370,0.0,1.5,147.0,2.3,'11111222,11111222,11111222' 
TCOON,ioos:station:TCOON:005:1,2017-01-01T02:06:00Z,27.6346,-97.2370,0.0,1.5,147.0,2.3,'11111222,11111222,11111222' 
TCOON,ioos:station:TCOON:005:1,2017-01-01T02:12:00Z,27.6346,-97.2370,0.0,1.2,141.0,2.0,'11111222,11111222,11111222' 
TCOON,ioos:station:TCOON:005:1,2017-01-01T02:18:00Z,27.6346,-97.2370,0.0,1.2,141.0,2.0,'1111122,1111122,1111122' 
TCOON,ioos:station:TCOON:005:1,2017-01-01T02:24:00Z,27.6346,-97.2370,0.0,2.0,130.0,2.4,'11111222,11111222,11111222' 
TCOON,ioos:station:TCOON:005:1,2017-01-01T02:30:00Z,27.6346,-97.2370,0.0,2.2,132.0,2.6,'11111222,11111222,11111222' 
TCOON,ioos:station:TCOON:005:1,2017-01-01T02:36:00Z,27.6346,-97.2370,0.0,1.8,136.0,2.4,'11111222,11111222,11111222' 
TCOON,ioos:station:TCOON:005:1,2017-01-01T02:42:00Z,27.6346,-97.2370,0.0,1.1,141.0,1.8,'11111222,11111222,11111222' 
TCOON,ioos:station:TCOON:005:1,2017-01-01T02:48:00Z,27.6346,-97.2370,0.0,1.2,130.0,1.5,'11111222,11111222,11111222' 
TCOON,ioos:station:TCOON:005:1,2017-01-01T02:54:00Z,27.6346,-97.2370,0.0,1.1,140.0,1.4,'11111222,11111222,11111222' 
TCOON,ioos:station:TCOON:005:1,2017-01-01T03:00:00Z,27.6346,-97.2370,0.0,1.1,139.0,1.5,'11111222,11111222,11111222' 
TCOON,ioos:station:TCOON:005:1,2017-01-01T03:06:00Z,27.6346,-97.2370,0.0,0.9,127.0,1.3,'11111222,11111222,11111222' 
TCOON,ioos:station:TCOON:005:1,2017-01-01T03:12:00Z,27.6346,-97.2370,0.0,1.1,123.0,1.5,'11111222,11111222,11111222' 
TCOON,ioos:station:TCOON:005:1,2017-01-01T03:18:00Z,27.6346,-97.2370,0.0,1.1,123.0,1.5,'1111122,1111122,1111122' 
TCOON,ioos:station:TCOON:005:1,2017-01-01T03:24:00Z,27.6346,-97.2370,0.0,1.1,127.0,1.2,'11111222,11111222,11111222' 
TCOON,ioos:station:TCOON:005:1,2017-01-01T03:30:00Z,27.6346,-97.2370,0.0,1.2,125.0,1.3,'11111222,11111222,11111222' 
TCOON,ioos:station:TCOON:005:1,2017-01-01T03:36:00Z,27.6346,-97.2370,0.0,1.2,99.0,1.6,'11111222,11111222,11111222' 
TCOON,ioos:station:TCOON:005:1,2017-01-01T03:42:00Z,27.6346,-97.2370,0.0,1.3,93.0,1.4,'11111222,11111222,11111222' 
TCOON,ioos:station:TCOON:005:1,2017-01-01T03:48:00Z,27.6346,-97.2370,0.0,1.8,92.0,2.0,'11111222,11111222,11111222' 
TCOON,ioos:station:TCOON:005:1,2017-01-01T03:54:00Z,27.6346,-97.2370,0.0,1.8,85.0,2.2,'11111222,11111222,11111222' 
TCOON,ioos:station:TCOON:005:1,2017-01-01T04:00:00Z,27.6346,-97.2370,0.0,1.8,89.0,2.0,'11111222,11111222,11111222' 
TCOON,ioos:station:TCOON:005:1,2017-01-01T04:06:00Z,27.6346,-97.2370,0.0,2.2,92.0,2.3,'11111222,11111222,11111222' 
TCOON,ioos:station:TCOON:005:1,2017-01-01T04:12:00Z,27.6346,-97.2370,0.0,2.0,105.0,2.3,'11111222,11111222,11111222' 
TCOON,ioos:station:TCOON:005:1,2017-01-01T04:18:00Z,27.6346,-97.2370,0.0,2.3,107.0,2.4,'11111222,11111222,11111222' 
TCOON,ioos:station:TCOON:005:1,2017-01-01T04:24:00Z,27.6346,-97.2370,0.0,2.0,97.0,2.4,'11111222,11111222,11111222' 
TCOON,ioos:station:TCOON:005:1,2017-01-01T04:30:00Z,27.6346,-97.2370,0.0,2.0,97.0,2.4,'1111122,1111122,1111122' 
TCOON,ioos:station:TCOON:005:1,2017-01-01T04:36:00Z,27.6346,-97.2370,0.0,1.7,97.0,2.0,'11111222,11111222,11111222' 
TCOON,ioos:station:TCOON:005:1,2017-01-01T04:42:00Z,27.6346,-97.2370,0.0,1.6,96.0,1.8,'11111222,11111222,11111222' 
TCOON,ioos:station:TCOON:005:1,2017-01-01T04:48:00Z,27.6346,-97.2370,0.0,2.3,104.0,2.4,'11111222,11111222,11111222' 
TCOON,ioos:station:TCOON:005:1,2017-01-01T04:54:00Z,27.6346,-97.2370,0.0,2.7,106.0,2.9,'11111222,11111222,11111222' 
TCOON,ioos:station:TCOON:005:1,2017-01-01T05:00:00Z,27.6346,-97.2370,0.0,2.1,91.0,2.6,'11111222,11111222,11111222' 
TCOON,ioos:station:TCOON:005:1,2017-01-01T05:06:00Z,27.6346,-97.2370,0.0,2.2,105.0,2.5,'11111222,11111222,11111222' 
TCOON,ioos:station:TCOON:005:1,2017-01-01T05:12:00Z,27.6346,-97.2370,0.0,2.2,99.0,2.6,'11111222,11111222,11111222' 
TCOON,ioos:station:TCOON:005:1,2017-01-01T05:18:00Z,27.6346,-97.2370,0.0,2.3,100.0,2.6,'11111222,11111222,11111222' 
TCOON,ioos:station:TCOON:005:1,2017-01-01T05:24:00Z,27.6346,-97.2370,0.0,2.3,100.0,2.6,'1111122,1111122,1111122' 
TCOON,ioos:station:TCOON:005:1,2017-01-01T05:30:00Z,27.6346,-97.2370,0.0,3.1,112.0,3.3,'11111222,11111222,11111222' 
TCOON,ioos:station:TCOON:005:1,2017-01-01T05:36:00Z,27.6346,-97.2370,0.0,3.2,108.0,3.7,'11111222,11111222,11111222' 
TCOON,ioos:station:TCOON:005:1,2017-01-01T05:42:00Z,27.6346,-97.2370,0.0,2.5,108.0,3.3,'11111222,11111222,11111222' 
TCOON,ioos:station:TCOON:005:1,2017-01-01T05:48:00Z,27.6346,-97.2370,0.0,2.6,107.0,2.8,'11111222,11111222,11111222' 
TCOON,ioos:station:TCOON:005:1,2017-01-01T05:54:00Z,27.6346,-97.2370,0.0,3.1,107.0,3.2,'11111222,11111222,11111222' 
TCOON,ioos:station:TCOON:005:1,2017-01-01T06:00:00Z,27.6346,-97.2370,0.0,2.2,96.0,3.2,'11111222,11111222,11111222' 
TCOON,ioos:station:TCOON:005:1,2017-01-01T06:06:00Z,27.6346,-97.2370,0.0,2.1,93.0,2.3,'11111222,11111222,11111222' 
TCOON,ioos:station:TCOON:005:1,2017-01-01T06:12:00Z,27.6346,-97.2370,0.0,2.2,97.0,2.6,'11111222,11111222,11111222' 
TCOON,ioos:station:TCOON:005:1,2017-01-01T06:18:00Z,27.6346,-97.2370,0.0,2.2,97.0,2.6,'1111122,1111122,1111122' 
TCOON,ioos:station:TCOON:005:1,2017-01-01T06:24:00Z,27.6346,-97.2370,0.0,3.2,115.0,3.7,'11111222,11111222,11111222' 
TCOON,ioos:station:TCOON:005:1,2017-01-01T06:30:00Z,27.6346,-97.2370,0.0,3.0,112.0,3.7,'11111222,11111222,11111222' 
TCOON,ioos:station:TCOON:005:1,2017-01-01T06:36:00Z,27.6346,-97.2370,0.0,2.7,107.0,3.4,'11111222,11111222,11111222' 
TCOON,ioos:station:TCOON:005:1,2017-01-01T06:42:00Z,27.6346,-97.2370,0.0,3.2,113.0,3.7,'11111222,11111222,11111222' 
TCOON,ioos:station:TCOON:005:1,2017-01-01T06:48:00Z,27.6346,-97.2370,0.0,2.7,119.0,3.4,'11111222,11111222,11111222' 
TCOON,ioos:station:TCOON:005:1,2017-01-01T06:54:00Z,27.6346,-97.2370,0.0,2.7,112.0,3.4,'11111222,11111222,11111222' 
TCOON,ioos:station:TCOON:005:1,2017-01-01T07:00:00Z,27.6346,-97.2370,0.0,3.2,118.0,3.4,'11111222,11111222,11111222' 
TCOON,ioos:station:TCOON:005:1,2017-01-01T07:06:00Z,27.6346,-97.2370,0.0,2.3,130.0,3.2,'11111222,11111222,11111222' 
TCOON,ioos:station:TCOON:005:1,2017-01-01T07:12:00Z,27.6346,-97.2370,0.0,2.8,124.0,3.3,'11111222,11111222,11111222' 
TCOON,ioos:station:TCOON:005:1,2017-01-01T07:18:00Z,27.6346,-97.2370,0.0,2.8,124.0,3.3,'1111122,1111122,1111122' 
TCOON,ioos:station:TCOON:005:1,2017-01-01T07:24:00Z,27.6346,-97.2370,0.0,2.1,129.0,2.7,'11111222,11111222,11111222' 
TCOON,ioos:station:TCOON:005:1,2017-01-01T07:30:00Z,27.6346,-97.2370,0.0,2.1,125.0,2.7,'11111222,11111222,11111222' 
TCOON,ioos:station:TCOON:005:1,2017-01-01T07:36:00Z,27.6346,-97.2370,0.0,1.8,120.0,2.3,'11111222,11111222,11111222' 
TCOON,ioos:station:TCOON:005:1,2017-01-01T07:42:00Z,27.6346,-97.2370,0.0,1.9,119.0,2.5,'11111222,11111222,11111222' 
TCOON,ioos:station:TCOON:005:1,2017-01-01T07:48:00Z,27.6346,-97.2370,0.0,1.7,155.0,2.6,'11111222,11111222,11111222' 
TCOON,ioos:station:TCOON:005:1,2017-01-01T07:54:00Z,27.6346,-97.2370,0.0,2.3,204.0,2.6,'11111222,11111222,11111222' 
TCOON,ioos:station:TCOON:005:1,2017-01-01T08:00:00Z,27.6346,-97.2370,0.0,2.9,227.0,3.5,'11111222,11111222,11111222' 
TCOON,ioos:station:TCOON:005:1,2017-01-01T08:06:00Z,27.6346,-97.2370,0.0,2.3,245.0,3.3,'11111222,11111222,11111222' 
TCOON,ioos:station:TCOON:005:1,2017-01-01T08:12:00Z,27.6346,-97.2370,0.0,1.8,215.0,2.7,'11111222,11111222,11111222' 
TCOON,ioos:station:TCOON:005:1,2017-01-01T08:18:00Z,27.6346,-97.2370,0.0,1.8,215.0,2.7,'1111122,1111122,1111122' 
TCOON,ioos:station:TCOON:005:1,2017-01-01T08:24:00Z,27.6346,-97.2370,0.0,1.7,187.0,2.0,'11111222,11111222,11111222' 
TCOON,ioos:station:TCOON:005:1,2017-01-01T08:30:00Z,27.6346,-97.2370,0.0,1.7,200.0,2.0,'11111222,11111222,11111222' 
TCOON,ioos:station:TCOON:005:1,2017-01-01T08:36:00Z,27.6346,-97.2370,0.0,1.2,228.0,1.8,'11111222,11111222,11111222' 
TCOON,ioos:station:TCOON:005:1,2017-01-01T08:42:00Z,27.6346,-97.2370,0.0,1.6,223.0,1.8,'11111222,11111222,11111222' 
TCOON,ioos:station:TCOON:005:1,2017-01-01T08:48:00Z,27.6346,-97.2370,0.0,1.7,228.0,2.0,'11111222,11111222,11111222' 
TCOON,ioos:station:TCOON:005:1,2017-01-01T08:54:00Z,27.6346,-97.2370,0.0,1.9,221.0,2.2,'11111222,11111222,11111222' 
TCOON,ioos:station:TCOON:005:1,2017-01-01T09:00:00Z,27.6346,-97.2370,0.0,1.8,223.0,2.3,'11111222,11111222,11111222' 
TCOON,ioos:station:TCOON:005:1,2017-01-01T09:06:00Z,27.6346,-97.2370,0.0,1.7,235.0,2.4,'11111222,11111222,11111222' 
TCOON,ioos:station:TCOON:005:1,2017-01-01T09:12:00Z,27.6346,-97.2370,0.0,1.2,216.0,1.5,'11111222,11111222,11111222' 
TCOON,ioos:station:TCOON:005:1,2017-01-01T09:18:00Z,27.6346,-97.2370,0.0,1.4,205.0,1.8,'11111222,11111222,11111222' 
TCOON,ioos:station:TCOON:005:1,2017-01-01T09:24:00Z,27.6346,-97.2370,0.0,1.4,205.0,1.8,'1111122,1111122,1111122' 
TCOON,ioos:station:TCOON:005:1,2017-01-01T09:30:00Z,27.6346,-97.2370,0.0,1.4,219.0,1.7,'11111222,11111222,11111222' 
TCOON,ioos:station:TCOON:005:1,2017-01-01T09:36:00Z,27.6346,-97.2370,0.0,1.6,214.0,1.8,'11111222,11111222,11111222' 
TCOON,ioos:station:TCOON:005:1,2017-01-01T09:42:00Z,27.6346,-97.2370,0.0,1.6,194.0,1.9,'11111222,11111222,11111222' 
TCOON,ioos:station:TCOON:005:1,2017-01-01T09:48:00Z,27.6346,-97.2370,0.0,1.5,197.0,2.0,'11111222,11111222,11111222' 
TCOON,ioos:station:TCOON:005:1,2017-01-01T09:54:00Z,27.6346,-97.2370,0.0,1.0,213.0,1.8,'11111222,11111222,11111222' 
TCOON,ioos:station:TCOON:005:1,2017-01-01T10:00:00Z,27.6346,-97.2370,0.0,0.7,206.0,1.0,'11111222,11111222,11111222' 
TCOON,ioos:station:TCOON:005:1,2017-01-01T10:06:00Z,27.6346,-97.2370,0.0,1.2,177.0,1.5,'11111222,11111222,11111222' 
TCOON,ioos:station:TCOON:005:1,2017-01-01T10:12:00Z,27.6346,-97.2370,0.0,1.7,169.0,2.1,'11111222,11111222,11111222' 
TCOON,ioos:station:TCOON:005:1,2017-01-01T10:18:00Z,27.6346,-97.2370,0.0,1.7,169.0,2.1,'1111122,1111122,1111122' 
TCOON,ioos:station:TCOON:005:1,2017-01-01T10:24:00Z,27.6346,-97.2370,0.0,1.9,202.0,2.5,'11111222,11111222,11111222' 
TCOON,ioos:station:TCOON:005:1,2017-01-01T10:30:00Z,27.6346,-97.2370,0.0,2.1,205.0,2.4,'11111222,11111222,11111222' 
TCOON,ioos:station:TCOON:005:1,2017-01-01T10:36:00Z,27.6346,-97.2370,0.0,2.3,198.0,3.0,'11111222,11111222,11111222' 
TCOON,ioos:station:TCOON:005:1,2017-01-01T10:42:00Z,27.6346,-97.2370,0.0,2.1,188.0,3.0,'11111222,11111222,11111222' 
TCOON,ioos:station:TCOON:005:1,2017-01-01T10:48:00Z,27.6346,-97.2370,0.0,2.4,190.0,2.7,'11111222,11111222,11111222' 
TCOON,ioos:station:TCOON:005:1,2017-01-01T10:54:00Z,27.6346,-97.2370,0.0,1.8,205.0,2.7,'11111222,11111222,11111222' 
TCOON,ioos:station:TCOON:005:1,2017-01-01T11:00:00Z,27.6346,-97.2370,0.0,2.1,223.0,3.0,'11111222,11111222,11111222' 
TCOON,ioos:station:TCOON:005:1,2017-01-01T11:06:00Z,27.6346,-97.2370,0.0,1.9,216.0,2.9,'11111222,11111222,11111222' 
TCOON,ioos:station:TCOON:005:1,2017-01-01T11:12:00Z,27.6346,-97.2370,0.0,2.5,223.0,3.0,'11111222,11111222,11111222' 
TCOON,ioos:station:TCOON:005:1,2017-01-01T11:18:00Z,27.6346,-97.2370,0.0,2.5,223.0,3.0,'1111122,1111122,1111122' 
TCOON,ioos:station:TCOON:005:1,2017-01-01T11:24:00Z,27.6346,-97.2370,0.0,2.2,223.0,3.0,'11111222,11111222,11111222' 
TCOON,ioos:station:TCOON:005:1,2017-01-01T11:30:00Z,27.6346,-97.2370,0.0,1.7,206.0,2.7,'11111222,11111222,11111222' 
TCOON,ioos:station:TCOON:005:1,2017-01-01T11:36:00Z,27.6346,-97.2370,0.0,1.6,207.0,2.6,'11111222,11111222,11111222' 
TCOON,ioos:station:TCOON:005:1,2017-01-01T11:42:00Z,27.6346,-97.2370,0.0,2.6,229.0,3.0,'11111222,11111222,11111222' 
TCOON,ioos:station:TCOON:005:1,2017-01-01T11:48:00Z,27.6346,-97.2370,0.0,1.9,213.0,2.8,'11111222,11111222,11111222' 
TCOON,ioos:station:TCOON:005:1,2017-01-01T11:54:00Z,27.6346,-97.2370,0.0,1.6,221.0,2.5,'11111222,11111222,11111222' 
TCOON,ioos:station:TCOON:005:1,2017-01-01T12:00:00Z,27.6346,-97.2370,0.0,1.3,214.0,1.6,'11111222,11111222,11111222' 
TCOON,ioos:station:TCOON:005:1,2017-01-01T12:06:00Z,27.6346,-97.2370,0.0,2.1,201.0,2.3,'11111222,11111222,11111222' 
TCOON,ioos:station:TCOON:005:1,2017-01-01T12:12:00Z,27.6346,-97.2370,0.0,2.0,230.0,2.4,'11111222,11111222,11111222' 
TCOON,ioos:station:TCOON:005:1,2017-01-01T12:18:00Z,27.6346,-97.2370,0.0,2.0,230.0,2.4,'1111122,1111122,1111122' 
TCOON,ioos:station:TCOON:005:1,2017-01-01T12:24:00Z,27.6346,-97.2370,0.0,4.2,313.0,4.7,'11111222,11111222,11111222' 
TCOON,ioos:station:TCOON:005:1,2017-01-01T12:30:00Z,27.6346,-97.2370,0.0,6.9,323.0,7.9,'11111222,11111222,11111222' 
TCOON,ioos:station:TCOON:005:1,2017-01-01T12:36:00Z,27.6346,-97.2370,0.0,5.7,308.0,8.5,'11111222,11111222,11111222' 
TCOON,ioos:station:TCOON:005:1,2017-01-01T12:42:00Z,27.6346,-97.2370,0.0,6.6,308.0,8.3,'11111222,11111222,11111222' 
TCOON,ioos:station:TCOON:005:1,2017-01-01T12:48:00Z,27.6346,-97.2370,0.0,3.7,334.0,5.8,'11111222,11111222,11111222' 
TCOON,ioos:station:TCOON:005:1,2017-01-01T12:54:00Z,27.6346,-97.2370,0.0,2.0,311.0,3.3,'11111222,11111222,11111222' 
TCOON,ioos:station:TCOON:005:1,2017-01-01T13:00:00Z,27.6346,-97.2370,0.0,1.4,257.0,2.2,'11111222,11111222,11111222' 
TCOON,ioos:station:TCOON:005:1,2017-01-01T13:06:00Z,27.6346,-97.2370,0.0,2.7,139.0,3.3,'11111222,11111222,11111222' 
TCOON,ioos:station:TCOON:005:1,2017-01-01T13:12:00Z,27.6346,-97.2370,0.0,4.2,143.0,5.1,'11111222,11111222,11111222' 
TCOON,ioos:station:TCOON:005:1,2017-01-01T13:18:00Z,27.6346,-97.2370,0.0,4.2,143.0,5.1,'1111122,1111122,1111122' 
TCOON,ioos:station:TCOON:005:1,2017-01-01T13:24:00Z,27.6346,-97.2370,0.0,7.6,132.0,8.8,'11111222,11111222,11111222' 
TCOON,ioos:station:TCOON:005:1,2017-01-01T13:30:00Z,27.6346,-97.2370,0.0,6.5,133.0,9.1,'11111222,11111222,11111222' 
TCOON,ioos:station:TCOON:005:1,2017-01-01T13:36:00Z,27.6346,-97.2370,0.0,10.5,130.0,12.3,'11111222,11111222,11111222' 
TCOON,ioos:station:TCOON:005:1,2017-01-01T13:42:00Z,27.6346,-97.2370,0.0,8.7,133.0,13.7,'11111222,11111222,11111222' 
TCOON,ioos:station:TCOON:005:1,2017-01-01T13:48:00Z,27.6346,-97.2370,0.0,10.2,130.0,13.7,'11111222,11111222,11111222' 
TCOON,ioos:station:TCOON:005:1,2017-01-01T13:54:00Z,27.6346,-97.2370,0.0,10.5,128.0,13.5,'11111222,11111222,11111222' 
TCOON,ioos:station:TCOON:005:1,2017-01-01T14:00:00Z,27.6346,-97.2370,0.0,9.6,128.0,14.9,'11111222,11111222,11111222' 
TCOON,ioos:station:TCOON:005:1,2017-01-01T14:06:00Z,27.6346,-97.2370,0.0,9.9,131.0,13.3,'11111222,11111222,11111222' 
TCOON,ioos:station:TCOON:005:1,2017-01-01T14:12:00Z,27.6346,-97.2370,0.0,8.7,129.0,12.5,'11111222,11111222,11111222' 
TCOON,ioos:station:TCOON:005:1,2017-01-01T14:18:00Z,27.6346,-97.2370,0.0,8.0,132.0,10.6,'11111222,11111222,11111222' 
TCOON,ioos:station:TCOON:005:1,2017-01-01T14:24:00Z,27.6346,-97.2370,0.0,8.0,132.0,10.6,'1111122,1111122,1111122' 
TCOON,ioos:station:TCOON:005:1,2017-01-01T14:30:00Z,27.6346,-97.2370,0.0,9.2,126.0,11.7,'11111222,11111222,11111222' 
TCOON,ioos:station:TCOON:005:1,2017-01-01T14:36:00Z,27.6346,-97.2370,0.0,8.2,124.0,10.2,'11111222,11111222,11111222' 
TCOON,ioos:station:TCOON:005:1,2017-01-01T14:42:00Z,27.6346,-97.2370,0.0,7.6,124.0,9.1,'11111222,11111222,11111222' 
TCOON,ioos:station:TCOON:005:1,2017-01-01T14:48:00Z,27.6346,-97.2370,0.0,7.8,123.0,9.7,'11111222,11111222,11111222' 
TCOON,ioos:station:TCOON:005:1,2017-01-01T14:54:00Z,27.6346,-97.2370,0.0,8.1,123.0,9.5,'11111222,11111222,11111222' 
TCOON,ioos:station:TCOON:005:1,2017-01-01T15:00:00Z,27.6346,-97.2370,0.0,8.2,123.0,10.1,'11111222,11111222,11111222' 
TCOON,ioos:station:TCOON:005:1,2017-01-01T15:06:00Z,27.6346,-97.2370,0.0,8.4,118.0,11.1,'11111222,11111222,11111222' 
TCOON,ioos:station:TCOON:005:1,2017-01-01T15:12:00Z,27.6346,-97.2370,0.0,8.1,121.0,10.6,'11111222,11111222,11111222' 
TCOON,ioos:station:TCOON:005:1,2017-01-01T15:18:00Z,27.6346,-97.2370,0.0,8.1,121.0,10.6,'1111122,1111122,1111122' 
TCOON,ioos:station:TCOON:005:1,2017-01-01T15:24:00Z,27.6346,-97.2370,0.0,8.9,125.0,10.5,'11111222,11111222,11111222' 
TCOON,ioos:station:TCOON:005:1,2017-01-01T15:30:00Z,27.6346,-97.2370,0.0,7.3,120.0,10.0,'11111222,11111222,11111222' 
TCOON,ioos:station:TCOON:005:1,2017-01-01T15:36:00Z,27.6346,-97.2370,0.0,6.7,124.0,9.5,'11111222,11111222,11111222' 
TCOON,ioos:station:TCOON:005:1,2017-01-01T15:42:00Z,27.6346,-97.2370,0.0,7.0,124.0,9.8,'11111222,11111222,11111222' 
TCOON,ioos:station:TCOON:005:1,2017-01-01T15:48:00Z,27.6346,-97.2370,0.0,6.7,123.0,8.2,'11111222,11111222,11111222' 
TCOON,ioos:station:TCOON:005:1,2017-01-01T15:54:00Z,27.6346,-97.2370,0.0,7.6,130.0,9.8,'11111222,11111222,11111222' 
TCOON,ioos:station:TCOON:005:1,2017-01-01T16:00:00Z,27.6346,-97.2370,0.0,6.8,128.0,8.6,'11111222,11111222,11111222' 
TCOON,ioos:station:TCOON:005:1,2017-01-01T16:06:00Z,27.6346,-97.2370,0.0,6.8,132.0,8.9,'11111222,11111222,11111222' 
TCOON,ioos:station:TCOON:005:1,2017-01-01T16:12:00Z,27.6346,-97.2370,0.0,5.3,129.0,7.7,'11111222,11111222,11111222' 
TCOON,ioos:station:TCOON:005:1,2017-01-01T16:18:00Z,27.6346,-97.2370,0.0,5.3,129.0,7.7,'1111122,1111122,1111122' 
TCOON,ioos:station:TCOON:005:1,2017-01-01T16:24:00Z,27.6346,-97.2370,0.0,2.6,116.0,4.8,'11111222,11111222,11111222' 
TCOON,ioos:station:TCOON:005:1,2017-01-01T16:30:00Z,27.6346,-97.2370,0.0,3.4,107.0,4.2,'11111222,11111222,11111222' 
TCOON,ioos:station:TCOON:005:1,2017-01-01T16:36:00Z,27.6346,-97.2370,0.0,2.3,111.0,3.4,'11111222,11111222,11111222' 
TCOON,ioos:station:TCOON:005:1,2017-01-01T16:42:00Z,27.6346,-97.2370,0.0,2.4,123.0,2.9,'11111222,11111222,11111222' 
TCOON,ioos:station:TCOON:005:1,2017-01-01T16:48:00Z,27.6346,-97.2370,0.0,1.7,109.0,3.4,'11111222,11111222,11111222' 
TCOON,ioos:station:TCOON:005:1,2017-01-01T16:54:00Z,27.6346,-97.2370,0.0,1.5,100.0,2.6,'11111222,11111222,11111222' 
TCOON,ioos:station:TCOON:005:1,2017-01-01T17:00:00Z,27.6346,-97.2370,0.0,0.8,49.0,1.2,'11111222,11111222,11111222' 
TCOON,ioos:station:TCOON:005:1,2017-01-01T17:06:00Z,27.6346,-97.2370,0.0,0.7,348.0,1.8,'11111222,11111222,11111222' 
TCOON,ioos:station:TCOON:005:1,2017-01-01T17:12:00Z,27.6346,-97.2370,0.0,2.9,293.0,3.8,'11111222,11111222,11111222' 
TCOON,ioos:station:TCOON:005:1,2017-01-01T17:18:00Z,27.6346,-97.2370,0.0,2.9,293.0,3.8,'1111122,1111122,1111122' 
TCOON,ioos:station:TCOON:005:1,2017-01-01T17:24:00Z,27.6346,-97.2370,0.0,1.7,260.0,2.1,'11111222,11111222,11111222' 
TCOON,ioos:station:TCOON:005:1,2017-01-01T17:30:00Z,27.6346,-97.2370,0.0,1.2,253.0,1.7,'11111222,11111222,11111222' 
TCOON,ioos:station:TCOON:005:1,2017-01-01T17:36:00Z,27.6346,-97.2370,0.0,1.6,311.0,1.8,'11111222,11111222,11111222' 
TCOON,ioos:station:TCOON:005:1,2017-01-01T17:42:00Z,27.6346,-97.2370,0.0,2.2,309.0,2.3,'11111222,11111222,11111222' 
TCOON,ioos:station:TCOON:005:1,2017-01-01T17:48:00Z,27.6346,-97.2370,0.0,1.7,311.0,2.3,'11111222,11111222,11111222' 
TCOON,ioos:station:TCOON:005:1,2017-01-01T17:54:00Z,27.6346,-97.2370,0.0,1.2,307.0,1.6,'11111222,11111222,11111222' 
TCOON,ioos:station:TCOON:005:1,2017-01-01T18:00:00Z,27.6346,-97.2370,0.0,1.1,296.0,1.4,'11111222,11111222,11111222' 
TCOON,ioos:station:TCOON:005:1,2017-01-01T18:06:00Z,27.6346,-97.2370,0.0,1.1,258.0,1.5,'11111222,11111222,11111222' 
TCOON,ioos:station:TCOON:005:1,2017-01-01T18:12:00Z,27.6346,-97.2370,0.0,1.4,255.0,2.1,'11111222,11111222,11111222' 
TCOON,ioos:station:TCOON:005:1,2017-01-01T18:18:00Z,27.6346,-97.2370,0.0,1.8,245.0,2.2,'11111222,11111222,11111222' 
TCOON,ioos:station:TCOON:005:1,2017-01-01T18:24:00Z,27.6346,-97.2370,0.0,1.8,245.0,2.2,'1111122,1111122,1111122' 
TCOON,ioos:station:TCOON:005:1,2017-01-01T18:30:00Z,27.6346,-97.2370,0.0,2.1,239.0,2.5,'11111222,11111222,11111222' 
TCOON,ioos:station:TCOON:005:1,2017-01-01T18:36:00Z,27.6346,-97.2370,0.0,1.9,223.0,2.4,'11111222,11111222,11111222' 
TCOON,ioos:station:TCOON:005:1,2017-01-01T18:42:00Z,27.6346,-97.2370,0.0,1.9,210.0,2.3,'11111222,11111222,11111222' 
TCOON,ioos:station:TCOON:005:1,2017-01-01T18:48:00Z,27.6346,-97.2370,0.0,1.8,213.0,2.3,'11111222,11111222,11111222' 
TCOON,ioos:station:TCOON:005:1,2017-01-01T18:54:00Z,27.6346,-97.2370,0.0,2.1,204.0,2.5,'11111222,11111222,11111222' 
TCOON,ioos:station:TCOON:005:1,2017-01-01T19:00:00Z,27.6346,-97.2370,0.0,2.1,190.0,2.8,'11111222,11111222,11111222' 
TCOON,ioos:station:TCOON:005:1,2017-01-01T19:06:00Z,27.6346,-97.2370,0.0,2.1,193.0,2.6,'11111222,11111222,11111222' 
TCOON,ioos:station:TCOON:005:1,2017-01-01T19:12:00Z,27.6346,-97.2370,0.0,2.1,203.0,2.6,'11111222,11111222,11111222' 
TCOON,ioos:station:TCOON:005:1,2017-01-01T19:18:00Z,27.6346,-97.2370,0.0,2.1,203.0,2.6,'1111122,1111122,1111122' 
TCOON,ioos:station:TCOON:005:1,2017-01-01T19:24:00Z,27.6346,-97.2370,0.0,2.3,197.0,3.5,'11111222,11111222,11111222' 
TCOON,ioos:station:TCOON:005:1,2017-01-01T19:30:00Z,27.6346,-97.2370,0.0,3.0,170.0,4.6,'11111222,11111222,11111222' 
TCOON,ioos:station:TCOON:005:1,2017-01-01T19:36:00Z,27.6346,-97.2370,0.0,3.5,171.0,4.7,'11111222,11111222,11111222' 
TCOON,ioos:station:TCOON:005:1,2017-01-01T19:42:00Z,27.6346,-97.2370,0.0,2.7,173.0,3.5,'11111222,11111222,11111222' 
TCOON,ioos:station:TCOON:005:1,2017-01-01T19:48:00Z,27.6346,-97.2370,0.0,3.4,155.0,4.6,'11111222,11111222,11111222' 
TCOON,ioos:station:TCOON:005:1,2017-01-01T19:54:00Z,27.6346,-97.2370,0.0,3.4,167.0,4.7,'11111222,11111222,11111222' 
TCOON,ioos:station:TCOON:005:1,2017-01-01T20:00:00Z,27.6346,-97.2370,0.0,3.6,150.0,5.0,'11111222,11111222,11111222' 
TCOON,ioos:station:TCOON:005:1,2017-01-01T20:06:00Z,27.6346,-97.2370,0.0,3.2,162.0,4.8,'11111222,11111222,11111222' 
TCOON,ioos:station:TCOON:005:1,2017-01-01T20:12:00Z,27.6346,-97.2370,0.0,4.1,159.0,5.2,'11111222,11111222,11111222' 
TCOON,ioos:station:TCOON:005:1,2017-01-01T20:18:00Z,27.6346,-97.2370,0.0,4.1,159.0,5.2,'1111122,1111122,1111122' 